Eureka, NV

1:11 PM PDT on April 22, 2018 (GMT -0700)
Eureka

Weather History for KP68 - January, 2014

Change the Weather History Date:

Monday, January 13, 2014

  Actual Average Record
Temperature  
Mean Temperature 32 °F 23 °F  
Max Temperature 43 °F 37 °F 56 °F (2000)
Min Temperature 21 °F 10 °F -23 °F (2007)
Degree Days  
Heating Degree Days 33 42  
Month to date heating degree days 434 546  
Since 1 July heating degree days 3385 3552  
Cooling Degree Days 0 0  
Month to date cooling degree days 0 0  
Year to date cooling degree days 0 0  
Moisture  
Dew Point 20 °F    
Average Humidity 65    
Maximum Humidity 84    
Minimum Humidity 46    
Precipitation  
Precipitation 0.00 in 0.02 in 0.12 in (1997)
Month to date precipitation 0.05 0.30  
Year to date precipitation 0.05 0.30  
Sea Level Pressure  
Sea Level Pressure 30.55 in    
Wind  
Wind Speed 5 mph (South)    
Max Wind Speed 12 mph    
Max Gust Speed 13 mph    
T = Trace of Precipitation, MM = Missing Value Source: NWS Daily Summary

Daily Weather History Graph

Daily Weather History Graph

Search for Another Location

Airport or City:

Astronomy

Jan. 13, 2014 Rise Set
Actual Time 7:03 AM PST 4:42 PM PST
Civil Twilight 6:33 AM PST 5:12 PM PST
Nautical Twilight 6:00 AM PST 5:45 PM PST
Astronomical Twilight 5:28 AM PST 6:17 PM PST
Moon 3:01 PM PST (1/13) 4:55 AM PST (1/13)
Length of Visible Light 10h 38m
Length of Day
9h 39m
Waxing Gibbous, 95% of the Moon is Illuminated
Jan 13
Waxing Gibbous
Jan 15
Full
Jan 23
Last Quarter
Jan 30
New
Feb 6
First Quarter

Hourly Weather History & Observations

Time (PST) Temp. Windchill Dew Point Humidity Pressure Visibility Wind Dir Wind Speed Gust Speed Precip Events Conditions
12:53 AM 24.1 °F 15.2 °F 19.0 °F 81% 30.44 in - SSE 8.1 mph - N/A   Unknown
1:53 AM 24.1 °F 16.0 °F 17.1 °F 75% 30.48 in - South 6.9 mph - N/A   Unknown
2:53 AM 25.0 °F 17.1 °F 18.0 °F 75% 30.50 in - SSE 6.9 mph - N/A   Unknown
3:53 AM 26.1 °F 19.4 °F 19.0 °F 75% 30.51 in - SSW 5.8 mph - N/A   Unknown
4:53 AM 25.0 °F 18.1 °F 18.0 °F 75% 30.52 in - South 5.8 mph - N/A   Unknown
5:53 AM 23.0 °F 18.4 °F 17.1 °F 78% 30.54 in - SW 3.5 mph - N/A   Unknown
6:53 AM 21.9 °F 11.0 °F 17.1 °F 82% 30.58 in - South 10.4 mph - N/A   Unknown
7:53 AM 21.9 °F 11.0 °F 16.0 °F 78% 30.61 in - SSW 10.4 mph - N/A   Unknown
8:53 AM 28.9 °F 21.9 °F 19.0 °F 67% 30.60 in - SSW 6.9 mph - N/A   Unknown
9:53 AM 34.0 °F 29.8 °F 19.9 °F 56% 30.59 in - NNE 4.6 mph - N/A   Unknown
10:53 AM 37.0 °F - 19.0 °F 48% 30.56 in - Calm Calm - N/A   Unknown
11:53 AM 37.0 °F 34.5 °F 19.9 °F 50% 30.55 in - South 3.5 mph - N/A   Unknown
12:53 PM 41.0 °F 35.8 °F 23.0 °F 49% 30.50 in - WSW 8.1 mph - N/A   Unknown
1:53 PM 41.0 °F 38.0 °F 23.0 °F 49% 30.50 in - East 4.6 mph - N/A   Unknown
2:53 PM 42.1 °F 40.2 °F 24.1 °F 49% 30.48 in - ESE 3.5 mph - N/A   Unknown
3:53 PM 43.0 °F 39.5 °F 24.1 °F 47% 30.48 in - ENE 5.8 mph - N/A   Unknown
4:53 PM 33.1 °F 27.7 °F 24.1 °F 70% 30.53 in - North 5.8 mph - N/A   Unknown
5:53 PM 30.0 °F 23.2 °F 24.1 °F 79% 30.57 in - South 6.9 mph - N/A   Unknown
6:53 PM 28.9 °F 22.8 °F 23.0 °F 78% 30.59 in - SW 5.8 mph - N/A   Unknown
7:53 PM 27.0 °F 21.6 °F 21.9 °F 81% 30.63 in - West 4.6 mph - N/A   Unknown
8:53 PM 27.0 °F 23.0 °F 21.9 °F 81% 30.61 in - South 3.5 mph - N/A   Unknown
9:53 PM 25.0 °F - 19.9 °F 81% 30.60 in - Calm Calm - N/A   Unknown
10:53 PM 25.0 °F 20.7 °F 19.0 °F 78% 30.60 in - SSE 3.5 mph - N/A   Unknown
11:53 PM 23.0 °F 15.8 °F 18.0 °F 81% 30.61 in - SSW 5.8 mph - N/A   Unknown